GW4708 Weather Reports


time (UTC)temp
C
wind
direction
speed
KPH
gust
KPH
rain 1hr
cm
rain 24hr
cm
rain mn
cm
humidity
%
barometer
mb
20260906193035 35 342 0.0 1.6 0.00 0.00 0.00 44 1013.8
20260906192117 35 27 0.0 1.6 0.00 0.00 0.00 48 1014.1
20260906192100 33 65 0.0 0.0 0.00 0.00 0.00 49 1014.4
20260906192052 35 75 0.0 3.2 0.00 0.00 0.00 47 1016.1
20260906170004 35 74 0.0 0.0 0.00 0.00 0.00 42 1016.3
20260906164507 35 228 0.0 1.6 0.00 0.00 0.00 43 1016.4
20260906163004 34 19 0.0 1.6 0.00 0.00 0.00 46 1016.6
20260906161508 34 69 0.0 1.6 0.00 0.00 0.00 47 1016.6
20260906160004 33 300 0.0 3.2 0.00 0.00 0.00 50 1016.5
20260906154506 32 60 0.0 1.6 0.00 0.00 0.00 54 1016.6
20260906153006 30 319 0.0 1.6 0.00 0.00 0.00 59 1016.5
20260906151506 29 254 0.0 1.6 0.00 0.00 0.00 58 1016.4
20260906150004 29 257 0.0 1.6 0.00 0.00 0.00 61 1016.4
20260906144506 29 50 0.0 1.6 0.00 0.00 0.00 61 1016.0
20260906143006 29 288 0.0 1.6 0.00 0.00 0.00 59 1015.9
20260906141507 28 72 0.0 0.0 0.00 0.00 0.00 63 1015.9
20260906140005 27 110 0.0 0.0 0.00 0.00 0.00 68 1015.9
20260906134507 26 114 0.0 0.0 0.00 0.00 0.00 69 1015.9
20260906133009 25 114 0.0 0.0 0.00 0.00 0.00 73 1015.9
20260906131509 23 114 0.0 0.0 0.00 0.00 0.00 78 1015.6
20260906130019 22 114 0.0 0.0 0.00 0.00 0.00 81 1015.5
20260906124511 21 115 0.0 0.0 0.00 0.00 0.00 82 1015.3
20260906123018 21 115 0.0 0.0 0.00 0.00 0.00 83 1015.0
20260906121530 21 115 0.0 0.0 0.00 0.00 0.00 84 1014.8
20260906120013 21 115 0.0 0.0 0.00 0.00 0.00 85 1014.4
20260906114523 21 111 0.0 0.0 0.00 0.00 0.00 84 1014.4
20260906113014 22 111 0.0 0.0 0.00 0.00 0.00 83 1014.2
20260906111513 22 111 0.0 0.0 0.00 0.00 0.00 83 1014.1
20260906110017 22 111 0.0 0.0 0.00 0.00 0.00 81 1014.0
20260906104515 22 111 0.0 0.0 0.00 0.00 0.00 82 1013.9
20260906103017 22 111 0.0 0.0 0.00 0.00 0.00 80 1013.9
20260906101521 22 111 0.0 0.0 0.00 0.00 0.00 79 1013.9
20260906100028 23 111 0.0 0.0 0.00 0.00 0.00 78 1013.7
20260906094518 22 111 0.0 0.0 0.00 0.00 0.00 79 1013.7
20260906093022 22 111 0.0 0.0 0.00 0.00 0.00 79 1013.8
20260906091525 22 111 0.0 0.0 0.00 0.00 0.00 79 1013.9
20260906090025 22 111 0.0 0.0 0.00 0.00 0.00 76 1013.9
20260906084520 22 111 0.0 0.0 0.00 0.00 0.00 76 1013.8
20260906083024 22 111 0.0 0.0 0.00 0.00 0.00 76 1013.5
20260906081527 22 111 0.0 0.0 0.00 0.00 0.00 75 1013.8
20260906080031 23 111 0.0 0.0 0.00 0.00 0.00 75 1013.7
20260906074523 23 111 0.0 0.0 0.00 0.00 0.00 75 1013.8
20260906073023 23 111 0.0 0.0 0.00 0.00 0.00 73 1013.6
20260906071504 23 111 0.0 0.0 0.00 0.00 0.00 73 1013.5
20260906070006 23 111 0.0 0.0 0.00 0.00 0.00 72 1013.5
20260906064512 24 111 0.0 0.0 0.00 0.00 0.00 72 1013.5
20260906063018 24 111 0.0 0.0 0.00 0.00 0.00 71 1013.3
20260906061502 25 111 0.0 0.0 0.00 0.00 0.00 70 1013.4
20260906060004 25 111 0.0 0.0 0.00 0.00 0.00 67 1013.5
20260906054507 25 111 0.0 0.0 0.00 0.00 0.00 67 1013.5
20260906053013 26 111 0.0 0.0 0.00 0.00 0.00 65 1013.3
20260906051523 26 111 0.0 0.0 0.00 0.00 0.00 65 1013.3
20260906050004 26 111 0.0 0.0 0.00 0.00 0.00 65 1013.3
20260906044507 26 180 0.0 0.0 0.00 0.00 0.00 64 1013.3
20260906043026 26 180 0.0 0.0 0.00 0.00 0.00 62 1013.3
20260906041519 27 180 0.0 0.0 0.00 0.00 0.00 61 1013.4
20260906040026 26 180 0.0 0.0 0.00 0.00 0.00 62 1013.3
20260906034503 27 180 0.0 0.0 0.00 0.00 0.00 62 1013.1
20260906033007 27 180 0.0 0.0 0.00 0.00 0.00 59 1013.1
20260906031520 28 180 0.0 0.0 0.00 0.00 0.00 58 1012.9
20260906030018 28 180 0.0 0.0 0.00 0.00 0.00 58 1012.7
20260906024527 28 180 0.0 0.0 0.00 0.00 0.00 57 1012.5
20260906023003 28 180 0.0 0.0 0.00 0.00 0.00 57 1012.3
20260906021510 28 180 0.0 0.0 0.00 0.00 0.00 57 1012.0
20260906020017 29 180 0.0 0.0 0.00 0.00 0.00 55 1011.6
20260906014523 30 180 0.0 0.0 0.00 0.00 0.00 52 1011.4
20260906013028 31 188 0.0 0.0 0.00 0.00 0.00 51 1011.2
20260906011504 31 120 0.0 0.0 0.00 0.00 0.00 49 1011.1
20260906010012 32 128 0.0 0.0 0.00 0.00 0.00 47 1011.2
20260906004520 33 141 0.0 0.0 0.00 0.00 0.00 46 1011.3
20260906003024 33 89 0.0 0.0 0.00 0.00 0.00 43 1011.4
20260906001545 34 109 0.0 0.0 0.00 0.00 0.00 43 1011.3
20260906000036 35 103 0.0 0.0 0.00 0.00 0.00 42 1011.5
20260905234514 35 111 0.0 0.0 0.00 0.00 0.00 42 1011.3
20260905233023 35 122 0.0 1.6 0.00 0.00 0.00 42 1011.3
20260905231528 35 114 0.0 1.6 0.00 0.00 0.00 42 1011.3
20260905230037 35 113 0.0 4.8 0.00 0.00 0.00 41 1011.4
20260905224534 35 89 0.0 3.2 0.00 0.00 0.00 41 1011.3
20260905223032 35 88 0.0 1.6 0.00 0.00 0.00 43 1011.2
20260905221524 35 51 0.0 1.6 0.00 0.00 0.00 42 1011.4
20260905220025 35 127 0.0 1.6 0.00 0.00 0.00 41 1011.4
20260905214536 36 72 0.0 1.6 0.00 0.00 0.00 40 1011.3
20260905213034 36 180 0.0 1.6 0.00 0.00 0.00 38 1011.5
20260905211515 37 122 0.0 6.4 0.00 0.00 0.00 37 1011.4
20260905210033 38 113 0.0 6.4 0.00 0.00 0.00 37 1011.5
20260905204533 38 41 0.0 8.0 0.00 0.00 0.00 34 1011.4
20260905203030 39 58 0.0 8.0 0.00 0.00 0.00 35 1011.7
20260905201520 39 133 1.6 11.3 0.00 0.00 0.00 35 1012.0
20260905200030 39 25 0.0 9.7 0.00 0.00 0.00 36 1012.2
20260905194504 38 117 0.0 8.0 0.00 0.00 0.00 38 1012.5